| time (UTC) | temp F | wind direction | speed MPH | gust MPH | rain 1hr in | rain 24hr in | rain mn in | humidity % | barometer mb |
| 20260505034205 | 41 | 256 | 0.0 | 5.0 | 0.00 | 0.01 | 0.00 | 87 | 1009.5 |
| 20260505033704 | 41 | 245 | 2.0 | 3.0 | 0.00 | 0.01 | 0.00 | 87 | 1009.5 |
| 20260505033204 | 42 | 238 | 1.0 | 2.0 | 0.00 | 0.01 | 0.00 | 87 | 1009.5 |
| 20260505032205 | 42 | 239 | 2.0 | 3.0 | 0.00 | 0.01 | 0.00 | 87 | 1009.5 |
| 20260505030705 | 42 | 239 | 2.0 | 5.0 | 0.00 | 0.01 | 0.00 | 87 | 1009.3 |
| 20260505025704 | 42 | 274 | 3.0 | 3.0 | 0.00 | 0.01 | 0.00 | 87 | 1009.4 |
| 20260505025205 | 42 | 272 | 2.0 | 3.0 | 0.00 | 0.01 | 0.00 | 87 | 1009.4 |
| 20260505024705 | 42 | 275 | 3.0 | 5.0 | 0.00 | 0.01 | 0.00 | 87 | 1009.4 |
| 20260505024204 | 42 | 292 | 3.0 | 5.0 | 0.00 | 0.01 | 0.00 | 87 | 1009.4 |
| 20260505023705 | 42 | 293 | 3.0 | 5.0 | 0.00 | 0.01 | 0.00 | 87 | 1009.5 |
| 20260505023205 | 42 | 263 | 3.0 | 5.0 | 0.00 | 0.01 | 0.00 | 87 | 1009.5 |
| 20260505022704 | 42 | 314 | 2.0 | 3.0 | 0.00 | 0.01 | 0.00 | 87 | 1009.4 |
| 20260505021705 | 42 | 314 | 3.0 | 5.0 | 0.00 | 0.01 | 0.00 | 87 | 1009.5 |
| 20260505020205 | 42 | 318 | 5.0 | 7.0 | 0.00 | 0.01 | 0.00 | 86 | 1009.6 |
| 20260505015204 | 42 | 296 | 5.0 | 6.0 | 0.00 | 0.01 | 0.00 | 86 | 1009.6 |
| 20260505014705 | 43 | 305 | 5.0 | 6.0 | 0.00 | 0.01 | 0.00 | 86 | 1009.6 |
| 20260505014204 | 43 | 303 | 5.0 | 6.0 | 0.00 | 0.01 | 0.00 | 86 | 1009.7 |
| 20260505013705 | 43 | 299 | 6.0 | 7.0 | 0.00 | 0.01 | 0.00 | 86 | 1009.7 |
| 20260505012706 | 43 | 289 | 5.0 | 6.0 | 0.00 | 0.01 | 0.00 | 86 | 1009.6 |
| 20260505011704 | 43 | 292 | 5.0 | 6.0 | 0.00 | 0.01 | 0.00 | 86 | 1009.6 |
| 20260505011205 | 43 | 289 | 3.0 | 5.0 | 0.00 | 0.01 | 0.00 | 86 | 1009.8 |
| 20260505010205 | 43 | 289 | 4.0 | 6.0 | 0.00 | 0.01 | 0.00 | 86 | 1009.8 |
| 20260505005204 | 44 | 289 | 6.0 | 8.0 | 0.00 | 0.01 | 0.00 | 86 | 1009.8 |
| 20260505004704 | 44 | 292 | 5.0 | 7.0 | 0.00 | 0.01 | 0.00 | 86 | 1009.7 |
| 20260505004204 | 44 | 303 | 6.0 | 7.0 | 0.00 | 0.01 | 0.00 | 86 | 1009.7 |
| 20260505003705 | 44 | 294 | 6.0 | 7.0 | 0.00 | 0.01 | 0.00 | 86 | 1009.7 |
| 20260505003204 | 44 | 289 | 5.0 | 7.0 | 0.00 | 0.01 | 0.00 | 86 | 1009.7 |
| 20260505001706 | 44 | 306 | 6.0 | 8.0 | 0.00 | 0.01 | 0.00 | 86 | 1009.9 |
| 20260505001206 | 44 | 293 | 5.0 | 7.0 | 0.00 | 0.01 | 0.00 | 86 | 1009.8 |
| 20260505000704 | 44 | 290 | 5.0 | 6.0 | 0.00 | 0.01 | 0.00 | 86 | 1009.8 |
| 20260505000204 | 44 | 291 | 3.0 | 6.0 | 0.00 | 0.01 | 0.00 | 86 | 1009.9 |
| 20260504235707 | 44 | 279 | 3.0 | 5.0 | 0.00 | 0.01 | 0.00 | 86 | 1009.9 |
| 20260504234705 | 44 | 288 | 3.0 | 5.0 | 0.00 | 0.01 | 0.00 | 85 | 1009.9 |
| 20260504232704 | 44 | 294 | 5.0 | 6.0 | 0.00 | 0.02 | 0.00 | 85 | 1009.8 |
| 20260504232206 | 44 | 290 | 4.0 | 6.0 | 0.00 | 0.02 | 0.00 | 85 | 1009.9 |
| 20260504231206 | 45 | 301 | 2.0 | 3.0 | 0.00 | 0.02 | 0.00 | 85 | 1010.0 |
| 20260504230705 | 45 | 301 | 5.0 | 6.0 | 0.00 | 0.02 | 0.00 | 85 | 1010.0 |
| 20260504224206 | 45 | 306 | 0.0 | 0.0 | 0.00 | 0.05 | 0.00 | 83 | 1010.0 |
| 20260504223705 | 45 | 306 | 0.0 | 0.0 | 0.00 | 0.05 | 0.00 | 83 | 1010.0 |
| 20260504222706 | 46 | 307 | 2.0 | 3.0 | 0.00 | 0.06 | 0.00 | 82 | 1009.9 |
| 20260504221704 | 46 | 306 | 3.0 | 5.0 | 0.00 | 0.06 | 0.00 | 81 | 1010.0 |
| 20260504220704 | 47 | 306 | 3.0 | 6.0 | 0.00 | 0.07 | 0.00 | 81 | 1009.9 |
| 20260504220204 | 47 | 302 | 4.0 | 6.0 | 0.00 | 0.09 | 0.00 | 81 | 1009.9 |
| 20260504213706 | 47 | 287 | 6.0 | 8.0 | 0.00 | 0.12 | 0.10 | 79 | 1009.9 |
| 20260504212206 | 47 | 300 | 5.0 | 8.0 | 0.00 | 0.13 | 0.10 | 78 | 1009.9 |
| 20260504211704 | 47 | 302 | 5.0 | 7.0 | 0.00 | 0.14 | 0.10 | 78 | 1009.9 |
| 20260504211204 | 48 | 291 | 4.0 | 7.0 | 0.00 | 0.15 | 0.10 | 77 | 1009.8 |
| 20260504210704 | 48 | 289 | 4.0 | 7.0 | 0.00 | 0.16 | 0.10 | 77 | 1009.8 |
| 20260504210208 | 48 | 283 | 4.0 | 7.0 | 0.00 | 0.16 | 0.10 | 76 | 1009.8 |
| 20260504205207 | 48 | 285 | 3.0 | 6.0 | 0.00 | 0.19 | 0.10 | 75 | 1009.8 |
| 20260504204708 | 48 | 287 | 3.0 | 7.0 | 0.00 | 0.20 | 0.10 | 75 | 1009.8 |
| 20260504203707 | 48 | 300 | 3.0 | 5.0 | 0.00 | 0.21 | 0.10 | 74 | 1009.8 |
| 20260504203208 | 48 | 279 | 2.0 | 5.0 | 0.00 | 0.22 | 0.10 | 74 | 1009.8 |
| 20260504201708 | 49 | 276 | 2.0 | 3.0 | 0.00 | 0.22 | 0.10 | 72 | 1009.8 |
| 20260504200708 | 49 | 268 | 3.0 | 5.0 | 0.00 | 0.22 | 0.10 | 71 | 1009.7 |
| 20260504200207 | 49 | 287 | 3.0 | 5.0 | 0.00 | 0.23 | 0.10 | 71 | 1009.7 |
| 20260504195207 | 50 | 267 | 2.0 | 5.0 | 0.00 | 0.24 | 0.10 | 70 | 1009.7 |
| 20260504194707 | 50 | 268 | 3.0 | 3.0 | 0.00 | 0.24 | 0.10 | 69 | 1009.6 |
| 20260504194206 | 50 | 268 | 3.0 | 5.0 | 0.00 | 0.26 | 0.10 | 69 | 1009.6 |
| 20260504193206 | 51 | 248 | 2.0 | 5.0 | 0.00 | 0.28 | 0.10 | 67 | 1009.6 |
| 20260504190206 | 53 | 262 | 1.0 | 2.0 | 0.00 | 0.29 | 0.10 | 63 | 1009.4 |
| 20260504185707 | 54 | 260 | 2.0 | 3.0 | 0.00 | 0.29 | 0.10 | 63 | 1009.4 |
| 20260504185207 | 54 | 258 | 1.0 | 5.0 | 0.00 | 0.29 | 0.10 | 63 | 1009.4 |
| 20260504184706 | 55 | 254 | 3.0 | 5.0 | 0.00 | 0.29 | 0.10 | 62 | 1009.4 |
| 20260504183207 | 56 | 262 | 2.0 | 3.0 | 0.00 | 0.29 | 0.10 | 60 | 1009.3 |
| 20260504182707 | 56 | 272 | 2.0 | 5.0 | 0.00 | 0.29 | 0.10 | 60 | 1009.3 |
| 20260504181206 | 58 | 274 | 4.0 | 7.0 | 0.00 | 0.29 | 0.10 | 57 | 1009.2 |
| 20260504180207 | 59 | 293 | 6.0 | 9.0 | 0.00 | 0.29 | 0.10 | 55 | 1009.2 |
| 20260504175206 | 59 | 283 | 7.0 | 8.0 | 0.00 | 0.29 | 0.10 | 54 | 1009.2 |
| 20260504174706 | 59 | 279 | 6.0 | 10.0 | 0.00 | 0.29 | 0.10 | 55 | 1009.2 |
| 20260504174206 | 59 | 272 | 6.0 | 9.0 | 0.00 | 0.29 | 0.10 | 54 | 1009.2 |
| 20260504173706 | 60 | 295 | 7.0 | 13.0 | 0.00 | 0.29 | 0.10 | 53 | 1009.2 |
| 20260504172707 | 60 | 281 | 6.0 | 14.0 | 0.00 | 0.29 | 0.10 | 54 | 1009.2 |
| 20260504170706 | 60 | 301 | 7.0 | 14.0 | 0.00 | 0.29 | 0.10 | 53 | 1009.2 |
| 20260504170206 | 60 | 285 | 7.0 | 8.0 | 0.00 | 0.29 | 0.10 | 54 | 1009.2 |
| 20260504150707 | 61 | 293 | 12.0 | 16.0 | 0.00 | 0.29 | 0.10 | 49 | 1009.2 |
| 20260504140707 | 61 | 239 | 12.0 | 22.0 | 0.00 | 0.29 | 0.10 | 50 | 1009.4 |
| 20260504130706 | 60 | 292 | 14.0 | 21.0 | 0.00 | 0.29 | 0.10 | 53 | 1009.2 |
| 20260504120206 | 59 | 261 | 11.0 | 16.0 | 0.00 | 0.29 | 0.10 | 54 | 1009.0 |
| 20260504100206 | 57 | 282 | 9.0 | 18.0 | 0.00 | 0.33 | 0.10 | 65 | 1008.3 |
| 20260504080706 | 50 | 299 | 12.0 | 17.0 | 0.00 | 0.33 | 0.10 | 89 | 1007.6 |
| 20260504060205 | 52 | 286 | 12.0 | 17.0 | 0.00 | 0.33 | 0.10 | 91 | 1005.5 |
| 20260504050707 | 54 | 286 | 12.0 | 16.0 | 0.01 | 0.33 | 0.10 | 91 | 1004.6 |
| 20260504045705 | 54 | 277 | 9.0 | 16.0 | 0.00 | 0.32 | 0.09 | 91 | 1004.4 |
| 20260504045207 | 54 | 288 | 5.0 | 10.0 | 0.00 | 0.32 | 0.09 | 91 | 1004.4 |
| 20260504044706 | 54 | 261 | 6.0 | 14.0 | 0.00 | 0.32 | 0.09 | 91 | 1004.4 |
| 20260504042707 | 54 | 258 | 5.0 | 16.0 | 0.00 | 0.32 | 0.09 | 91 | 1004.2 |
| 20260504042206 | 54 | 246 | 9.0 | 15.0 | 0.00 | 0.32 | 0.09 | 91 | 1004.1 |
| 20260504041207 | 54 | 246 | 6.0 | 15.0 | 0.00 | 0.32 | 0.09 | 91 | 1004.1 |
| 20260504040706 | 54 | 244 | 7.0 | 15.0 | 0.00 | 0.32 | 0.09 | 91 | 1004.1 |
| 20260504040205 | 54 | 286 | 6.0 | 14.0 | 0.00 | 0.32 | 0.09 | 91 | 1004.1 |
| 20260504035706 | 54 | 247 | 6.0 | 13.0 | 0.00 | 0.32 | 0.09 | 91 | 1004.1 |
| 20260504035205 | 54 | 208 | 7.0 | 13.0 | 0.00 | 0.32 | 0.09 | 91 | 1004.1 |